Regional Weather Roundup
Issued by NWS Northern Indiana

Home | Current Version | Previous Version | Text Only | Print | Product List | Glossary Off
Versions: 1 2 3 4 5 6 7 8 9 10 11 12 13 14 15 16 17 18 19 20 21 22 23 24 25 26 27 28 29 30 31 32 33 34 35 36 37 38 39 40 41 42 43 44 45 46 47 48 49 50

000
ASUS43 KIWX 041810
RWRIWX

KIWX WEATHER ROUNDUP
NATIONAL WEATHER SERVICE NORTHERN INDIANA
200 PM EDT FRI SEP 04 2015

NOTE: "FAIR" INDICATES FEW OR NO CLOUDS BELOW 12,000 FEET WITH NO
SIGNIFICANT WEATHER AND/OR OBSTRUCTIONS TO VISIBILITY.

* THESE STATIONS ARE NOT UNDER NWS QUALITY CONTROL. THEY ALSO MAY NOT
  REPORT WEATHER SUCH AS PRECIPITATION OR FOG.

INZ001>027-041900-
NORTHERN INDIANA

CITY           SKY/WX    TMP DP  RH WIND       PRES   REMARKS
GARY*          PTSUNNY   77  68  73 N7        30.03F
VALPARAISO     PTSUNNY   80  70  71 W6        30.03F
6HR MIN TEMP:  67; 6HR MAX TEMP:  81;

MICHIGAN CITY* MOSUNNY   77  73  88 N7        30.04S
LAPORTE*       PTSUNNY   83  74  73 NW6       30.03S
KNOX*          CLOUDY    79  68  69 CALM      30.01S
SOUTH BEND     PTSUNNY   83  70  64 W7        30.03F
6HR MIN TEMP:  68; 6HR MAX TEMP:  83;

ELKHART*       MOSUNNY   82  72  69 SW6       30.03F
GOSHEN         PTSUNNY   83  72  69 NW6       30.02F
6HR MIN TEMP:  68; 6HR MAX TEMP:  83;

MONTICELLO*    PTSUNNY   87  74  63 CALM      30.00F HX  95
6HR MIN TEMP:  65; 6HR MAX TEMP:  87;

LOGANSPORT*    MOSUNNY   90  61  37 W10       30.02F
ROCHESTER*     SUNNY     90  70  51 W6        30.02F HX  95
WARSAW*        MOSUNNY   86  72  62 W6        30.02F
ANGOLA*        SUNNY     77  70  78 CALM      30.04S
FORT WAYNE     PTSUNNY   73  67  81 E8        30.04R
6HR MIN TEMP:  69; 6HR MAX TEMP:  85; 6HR PCP:  0.57;

HUNTINGTON*    MOSUNNY   90  65  43 SW8G16    30.01F
6HR MIN TEMP:  68; 6HR MAX TEMP:  90;

PERU/GRISSOM   SUNNY     91  69  48 W12       30.01F HX  95
6HR MIN TEMP:  67; 6HR MAX TEMP:  91;

MARION*        MOSUNNY   85  56  37 W3        30.03S
6HR MIN TEMP:  49; 6HR MAX TEMP:  89;


$$
INZ028>050-041900-
CENTRAL INDIANA

CITY           SKY/WX    TMP DP  RH WIND       PRES   REMARKS
LAFAYETTE      MOSUNNY   92  66  42 W9        30.00F
6HR MIN TEMP:  66; 6HR MAX TEMP:  92;

KOKOMO*        CLOUDY    90  70  51 NW12      30.02S HX  95
6HR MIN TEMP:  70; 6HR MAX TEMP:  91;

MUNCIE*        MOSUNNY   88  68  51 W12G18    30.03F
6HR MIN TEMP:  70; 6HR MAX TEMP:  88;

INDIANAPOLIS   PTSUNNY   89  65  44 S9        30.03F
6HR MIN TEMP:  71; 6HR MAX TEMP:  92;


$$
MIZ043>046-050>051-056>058-064>065-071>073-077>080-041900-
SOUTHWEST LOWER MICHIGAN

CITY           SKY/WX    TMP DP  RH WIND       PRES   REMARKS
BATTLE CREEK   MOSUNNY   80  65  59 NW5       30.03F
6HR MIN TEMP:  68; 6HR MAX TEMP:  81;

BENTON HARBOR  SUNNY     75  67  76 VRB6      30.03F
6HR MIN TEMP:  69; 6HR MAX TEMP:  76;

COLDWATER*     MOSUNNY   81  66  61 W6        30.04S
6HR MIN TEMP:  67; 6HR MAX TEMP:  81;

HILLSDALE*     SUNNY     80  68  66 W7        30.04F
6HR MIN TEMP:  69; 6HR MAX TEMP:  80;

HOLLAND        PTSUNNY   76  66  71 W6        30.04S
6HR MIN TEMP:  69; 6HR MAX TEMP:  78;

GRAND RAPIDS   CLOUDY    76  66  71 W8        30.03F
6HR MIN TEMP:  68; 6HR MAX TEMP:  76;

KALAMAZOO      MOSUNNY   80  65  59 W9        30.03F
6HR MIN TEMP:  69; 6HR MAX TEMP:  81;

STURGIS*       MOSUNNY   75  68  78 CALM      30.04R
THREE RIVERS*  FAIR      78  67  69 N6        30.04S
6HR MIN TEMP:  68; 6HR MAX TEMP:  78;


$$
OHZ001>008-015>018-024>025-041900-
NORTHWEST OHIO

CITY           SKY/WX    TMP DP  RH WIND       PRES   REMARKS
WAUSEON*       PTSUNNY   84  73  70 W9        30.02S
DEFIANCE       LGT RAIN  83  71  67 W3        30.02S
6HR MIN TEMP:  71; 6HR MAX TEMP:  86; 6HR PCP: TRACE;

FINDLAY        PTSUNNY   81  67  62 SW6       30.02S
6HR MIN TEMP:  71; 6HR MAX TEMP:  86;

TOLEDO EXPRESS PTSUNNY   85  72  65 SW3       30.00F
6HR MIN TEMP:  67; 6HR MAX TEMP:  85;

TOLEDO METCALF PTSUNNY   87  72  60 S10       30.01F
6HR MIN TEMP:  67; 6HR MAX TEMP:  87;

LIMA           MOSUNNY   88  69  53 SW8       30.02F
6HR MIN TEMP:  70; 6HR MAX TEMP:  89;


$$
AND FOR LAKE MICHIGAN COASTAL AND OPEN LAKE BUOY OBSERVATIONS

STATION/POSITION TEMP    WIND        PRES    VSBY  WAVE
                 AIR SEA DIR/SP/G                  HT/PER
                 (F)     (DEG/KT/KT) (MB)    (MI)  (FT/S)
CALUMET HARBOR    74      20/  6/  9   N/A
MICHIGAN CITY     73     340/  6/  7   N/A
BURNS HARBOR      72      30/  8/  9 1017.6S
SAINT JOSEPH      73     290/  4/  5 1017.3F
SOUTH LAKE BUOY   68 71  290/  6/  8 1016.9
4 MI NW BRIDGMAN  71 76   20/  6/  6   N/A           1/ 4
MICHIGAN CITY     72 74   10/  6/  8   N/A           2/ 4

$$
&&



USA.gov is the U.S. government's official web portal to all federal, state and local government web resources and services.